Theta_e
321 316 310 306 308 310 312 309 295 299 297 290 289 292 291 300 300 296 295 297 292 295 296 296 296 295 294 289 289 290 290 288 288 289 288 292 299 299 298 299 300 299 299 298 299 301 304 315 320 320 321 322 321 321 321 320 320 320 320 321 320 320 320 320 321 321 321 321 321 322 322 323 323 322 322 322 323 323 323 323 324 324 323 325 325 325 323 323 322 322 324 326 326 326 325 324 323
319 315 309 307 308 314 307 306 296 292 293 292 293 296 295 299 298 294 294 294 295 295 295 294 294 293 293 292 292 293 290 291 292 290 294 297 298 298 298 298 299 297 298 298 299 300 304 311 319 318 319 320 321 320 320 319 319 320 320 320 320 320 320 320 320 320 320 320 320 320 320 320 321 322 322 321 322 322 322 322 323 323 323 325 325 325 324 323 321 320 320 320 322 323 324 323 321
319 311 308 311 311 310 307 303 293 289 289 288 292 295 300 295 294 295 296 295 296 296 296 295 295 293 295 295 291 290 285 293 293 296 295 296 292 295 298 299 301 300 300 300 300 299 303 312 317 318 319 319 319 319 319 319 319 319 319 319 319 319 319 319 319 319 319 319 319 318 318 318 319 319 321 321 322 321 321 321 321 321 321 323 321 322 323 323 322 320 319 319 318 319 320 321 321
313 310 308 309 307 306 297 295 291 289 289 291 291 297 296 295 293 294 296 298 297 297 298 294 291 294 293 289 290 295 291 292 294 295 295 297 297 298 299 302 304 301 300 300 298 299 303 312 316 316 317 318 319 319 318 318 318 318 318 318 319 319 319 318 318 318 318 318 318 318 317 317 317 318 318 319 320 321 320 320 320 320 320 320 320 319 320 320 320 319 319 319 319 318 318 318 318
308 311 309 308 304 299 296 292 288 287 287 292 290 296 296 296 294 294 296 298 297 298 297 294 292 293 292 290 292 289 290 294 293 296 297 301 301 300 300 300 298 296 296 297 298 298 303 313 314 315 316 317 318 318 318 318 318 318 317 317 317 317 318 317 317 317 317 317 317 317 316 316 316 316 317 317 318 319 319 319 318 318 318 318 319 319 319 319 318 318 317 317 317 317 316 316 316
309 309 314 309 301 304 297 290 288 288 291 294 291 294 298 298 295 295 295 297 297 296 297 295 293 290 287 289 291 287 293 290 293 294 296 299 300 300 300 303 299 297 297 297 297 298 299 311 311 312 314 315 316 317 317 316 316 316 316 317 316 316 317 317 316 316 316 316 316 315 315 315 315 314 315 315 315 316 317 317 317 316 317 317 317 317 317 317 317 317 316 316 316 315 315 314 315
308 307 307 306 302 301 290 288 287 289 291 294 294 295 297 298 298 297 296 295 296 295 296 292 292 291 288 291 293 294 296 297 292 295 301 300 300 301 300 298 296 297 296 297 297 297 300 307 310 310 312 313 314 315 315 315 315 315 315 316 316 316 316 315 315 315 315 315 315 315 314 314 314 313 313 314 314 315 314 315 316 315 315 315 315 315 316 315 315 316 315 315 315 315 314 314 314
311 306 302 297 293 294 288 287 287 288 291 295 294 295 295 296 296 295 294 294 290 290 293 293 294 289 287 295 286 296 300 299 297 302 301 299 301 302 301 299 296 296 296 296 297 297 304 306 309 309 310 311 312 312 313 313 314 314 315 314 313 314 314 314 314 314 313 313 314 314 314 313 312 313 312 312 313 314 314 314 314 315 314 314 314 315 314 314 314 314 315 314 314 314 314 313 313
308 306 305 299 291 291 287 287 288 293 293 296 295 299 300 297 297 295 293 293 292 292 290 291 293 289 288 288 288 293 295 297 300 302 302 300 300 303 302 298 296 296 297 297 297 298 298 305 308 308 308 309 310 311 311 312 313 311 312 312 313 313 313 313 313 313 313 313 313 313 313 312 311 311 312 312 312 312 313 313 313 313 314 314 314 314 314 314 314 314 314 314 313 313 313 313 313
304 301 294 295 294 289 290 290 287 291 292 295 295 295 297 297 295 295 293 291 292 292 291 292 293 289 290 286 288 291 294 299 301 300 302 302 302 302 300 298 299 297 297 296 297 297 298 306 307 307 308 308 309 309 310 311 312 311 311 311 312 312 312 312 312 312 312 312 312 312 311 310 310 310 311 310 310 310 311 311 311 313 313 313 313 313 312 313 313 313 313 314 313 313 312 313 312
297 300 301 293 289 288 288 289 291 293 293 295 295 297 297 298 296 294 293 291 293 291 291 293 289 289 290 288 289 299 298 299 297 295 298 300 303 299 296 297 298 299 295 297 298 299 297 297 306 305 306 307 309 309 309 309 311 310 310 310 310 311 310 310 311 311 310 310 310 311 310 310 309 309 309 309 309 309 310 310 310 312 312 312 312 312 312 312 312 312 312 312 313 313 312 311 311
297 295 298 289 287 288 289 290 290 292 294 294 292 295 296 295 295 291 291 290 291 291 290 291 290 293 288 288 288 293 295 295 296 298 298 299 295 297 300 296 297 297 297 297 299 297 297 296 295 303 306 307 307 308 308 309 308 308 309 309 309 309 310 309 309 309 309 309 309 309 309 309 309 309 308 307 308 308 308 309 309 311 311 311 311 311 311 311 311 312 312 312 312 312 311 311 310
300 299 295 290 286 290 291 291 290 292 291 290 292 294 297 294 291 291 290 289 288 290 289 291 295 295 288 288 292 293 293 295 299 299 299 296 296 296 298 297 297 296 298 301 298 295 295 294 294 297 302 306 305 308 308 309 307 307 307 308 308 308 308 308 308 308 308 308 307 308 307 308 308 308 308 307 308 307 307 307 308 309 310 310 310 310 310 310 310 311 311 311 311 311 310 310 309
298 296 295 289 291 290 291 291 291 289 288 290 293 294 293 292 291 291 291 288 286 287 291 292 294 294 288 290 290 290 293 297 297 300 297 296 296 296 297 296 296 296 296 296 294 293 292 293 295 295 296 295 295 300 305 307 309 306 306 307 307 306 307 306 306 306 306 306 306 306 306 306 306 307 306 306 307 306 305 306 307 308 309 310 310 310 310 310 309 310 310 309 310 310 309 308 308
301 297 294 290 289 288 289 289 288 287 286 292 293 293 292 292 291 290 289 288 287 289 291 294 293 293 290 289 288 291 292 294 296 299 298 296 296 296 296 295 295 295 295 294 293 292 292 292 294 294 297 294 294 294 295 298 307 308 306 306 306 306 306 305 305 305 305 305 305 305 305 305 306 305 305 306 306 305 305 304 305 307 308 309 309 309 309 309 308 308 309 308 308 309 308 307 306
299 295 290 287 285 287 288 288 288 287 287 291 292 294 291 291 292 290 289 291 288 290 291 288 292 291 292 290 290 291 293 295 296 297 296 296 295 295 294 294 293 293 292 293 292 292 292 292 293 294 294 294 293 294 295 295 301 308 307 307 306 306 307 305 305 305 306 305 305 304 304 301 301 298 304 301 305 305 304 302 304 305 307 308 308 308 308 308 308 308 308 308 308 307 306 305 304
297 298 290 285 286 287 288 287 287 283 289 291 292 292 289 287 291 291 293 292 289 288 288 288 288 291 288 289 291 292 293 298 301 296 294 292 291 291 290 290 291 291 293 292 291 291 292 292 292 293 294 294 294 294 296 295 300 306 301 305 305 307 305 306 304 304 303 301 303 302 300 296 293 293 294 297 303 301 303 302 303 304 305 306 307 307 307 306 306 307 307 307 307 306 304 304 303
295 289 287 285 284 286 289 288 288 291 288 288 290 290 289 286 289 290 292 289 288 288 288 288 289 288 291 291 291 292 293 293 292 291 289 288 288 287 286 287 287 288 288 290 291 291 291 291 292 294 293 293 294 296 296 296 296 300 293 293 296 301 302 305 297 298 300 293 301 296 293 296 293 292 294 302 298 299 298 302 303 303 304 304 305 305 305 305 305 306 306 305 305 304 303 294 295
290 285 287 284 284 288 292 292 293 290 288 289 289 290 290 289 288 290 286 284 285 286 286 287 287 288 289 290 290 290 291 291 290 289 288 288 288 288 287 287 287 288 288 288 289 290 291 291 291 292 293 292 293 292 296 295 294 294 293 293 296 299 298 299 293 294 292 293 294 293 296 293 293 293 295 301 300 300 298 302 302 302 302 303 303 304 303 304 305 305 305 304 303 302 294 292 292
291 290 285 285 289 290 291 292 291 292 290 287 287 286 286 286 288 289 284 282 284 283 283 285 285 286 288 289 289 290 290 290 289 289 289 289 289 289 288 288 287 287 288 288 289 293 293 291 291 291 296 292 292 293 295 292 294 293 293 293 294 293 293 294 292 292 292 292 293 294 293 294 293 292 300 299 298 293 293 298 300 300 300 300 302 298 300 300 303 302 302 302 300 295 291 291 292
290 288 284 287 289 289 289 290 290 289 290 287 286 286 285 285 286 287 285 285 282 282 285 286 285 287 288 288 289 290 290 289 289 289 289 288 289 290 289 289 288 288 288 291 292 291 290 291 291 291 291 291 292 291 292 293 294 291 292 293 294 291 293 292 291 291 292 292 292 293 293 295 292 292 291 291 291 291 291 291 291 291 291 291 298 291 292 292 293 291 291 293 290 291 290 290 290
288 285 287 289 290 288 290 290 290 289 288 287 286 286 284 286 285 284 285 283 280 283 285 285 287 287 287 288 288 289 290 289 288 288 288 289 289 289 289 287 289 288 289 288 288 289 291 291 290 290 291 291 291 291 292 296 293 291 291 293 293 292 295 291 291 291 292 292 291 293 297 292 291 291 290 290 291 290 290 290 291 291 290 291 293 291 291 291 291 290 290 290 290 290 290 290 290
287 287 288 289 289 289 290 290 288 289 287 286 284 285 284 283 281 283 283 282 283 286 285 285 285 286 287 287 287 288 286 286 287 287 289 289 288 288 288 289 288 287 287 287 288 289 294 290 290 289 290 291 291 291 292 291 291 291 291 294 294 291 295 292 291 291 292 292 291 293 294 291 290 290 290 290 290 290 290 290 290 290 290 290 291 290 290 290 290 290 290 290 290 290 290 290 290
290 285 286 287 289 287 287 287 287 286 287 284 285 286 284 283 281 283 281 283 284 285 284 285 286 286 286 284 286 286 286 285 286 287 288 288 289 289 289 289 288 286 287 287 288 289 291 290 290 289 290 293 291 291 291 291 290 292 293 295 292 295 295 291 291 292 292 291 292 292 295 291 290 289 290 289 289 289 290 290 290 289 289 289 290 290 289 289 289 289 289 289 289 289 289 290 290
287 286 287 286 287 286 286 286 286 285 285 285 286 284 282 283 283 283 282 283 284 285 285 285 285 283 283 284 285 285 286 287 286 287 288 287 287 290 289 288 287 286 287 288 288 289 289 293 289 289 289 292 292 291 291 291 290 291 291 290 290 299 291 291 291 292 291 291 291 292 293 291 290 290 289 289 289 289 289 290 289 289 289 288 289 289 289 288 288 288 288 288 288 288 289 289 290
287 287 287 287 286 287 286 286 285 286 286 286 284 282 282 284 284 282 283 284 285 285 285 285 285 285 284 284 285 283 284 284 285 286 287 286 287 287 287 286 288 287 287 288 288 289 289 290 289 290 290 292 292 291 290 291 290 290 291 291 290 294 290 292 292 291 290 290 290 291 292 293 290 289 289 289 289 289 289 289 289 288 288 288 287 287 288 287 287 286 287 287 287 287 288 288 290
289 288 288 287 287 288 287 286 284 285 285 286 284 282 283 283 284 279 283 284 284 284 283 283 284 284 284 284 284 284 284 285 286 286 287 286 286 286 286 286 286 287 288 287 287 288 293 289 290 290 290 296 293 291 291 293 291 290 292 291 290 290 291 293 291 291 291 290 291 290 291 292 292 289 289 289 289 288 288 289 288 288 287 287 287 287 287 287 286 286 287 287 287 286 287 288 288
288 287 286 285 286 287 286 286 286 285 285 285 285 283 282 283 280 279 281 283 285 284 282 282 283 282 282 283 284 286 285 286 286 286 286 285 286 286 286 286 286 287 287 287 287 289 289 290 290 290 292 292 295 292 293 291 292 290 293 291 290 292 293 291 290 291 292 290 291 290 291 291 294 289 289 289 289 288 288 288 287 287 286 286 286 286 285 286 286 286 286 286 286 286 286 287 287
287 288 283 282 284 284 283 284 286 285 284 284 283 281 281 280 279 282 283 284 283 283 282 281 282 282 283 284 284 285 286 287 285 285 288 286 286 287 287 287 287 287 287 288 288 289 289 290 291 291 291 291 290 291 291 290 291 291 291 291 292 294 291 291 290 291 290 291 291 290 290 291 292 290 288 289 290 287 287 287 286 287 285 285 286 285 285 285 285 284 283 284 284 285 285 284 285
286 286 284 281 279 280 284 285 285 285 286 284 284 275 276 277 280 281 282 283 283 282 284 283 281 282 283 284 284 285 286 286 285 287 287 287 287 287 287 287 290 288 289 289 288 289 291 293 292 293 293 293 294 293 294 291 290 291 294 290 293 291 290 290 292 290 290 290 290 290 290 291 291 289 288 288 288 287 287 286 285 285 285 285 284 284 284 284 283 282 282 283 284 284 282 283 283
281 282 281 277 275 278 283 284 282 285 286 283 285 276 275 275 279 281 282 284 283 282 282 283 282 282 283 284 284 285 286 287 287 287 289 288 287 286 288 287 287 287 289 288 287 288 290 289 295 293 294 291 290 289 290 290 293 290 289 291 291 290 292 290 289 290 289 290 290 289 290 291 290 289 288 287 287 286 285 284 284 283 284 284 283 283 283 282 281 281 282 281 282 282 282 283 283
281 279 277 275 276 277 280 285 283 282 284 283 281 276 274 276 278 280 282 283 282 282 283 283 282 282 283 282 284 284 286 286 286 287 287 287 287 286 286 287 287 286 287 287 288 290 288 288 292 290 289 290 290 291 290 289 290 290 290 295 291 290 290 290 289 290 290 289 289 289 289 290 289 288 287 287 285 285 284 283 283 283 283 283 283 282 282 281 281 281 282 281 281 281 282 281 282
280 277 277 277 276 278 277 284 282 283 283 282 281 276 278 278 280 280 281 283 282 282 282 282 283 283 283 283 283 284 285 286 285 286 286 286 287 286 285 286 286 288 287 287 288 288 288 287 290 289 290 289 289 289 289 289 289 289 290 290 291 290 289 289 289 290 290 289 288 288 288 289 288 287 287 286 285 284 283 283 282 282 283 282 281 280 280 281 280 281 281 282 281 280 281 280 281
276 276 276 277 275 277 277 280 282 281 281 280 279 277 276 277 279 280 281 283 282 281 282 281 283 283 283 283 282 283 283 284 284 284 286 286 286 287 287 291 292 290 287 291 288 287 289 288 289 292 290 288 289 289 289 290 290 290 289 289 292 289 289 289 290 289 289 288 288 288 288 288 289 286 285 285 282 285 283 281 281 281 282 281 280 280 279 280 280 280 280 280 281 280 280 280 280
277 276 276 277 276 275 277 277 281 281 280 279 277 277 278 278 279 279 280 282 282 281 280 282 282 282 283 282 283 283 283 283 284 285 285 286 286 287 287 286 287 288 287 286 287 288 288 288 290 288 289 288 289 289 289 289 289 289 288 289 289 289 289 289 290 288 288 288 288 287 288 287 287 285 284 283 282 282 281 280 280 280 281 280 279 279 279 280 281 280 279 279 281 280 280 280 279
280 276 275 275 275 277 277 280 282 280 277 278 275 275 277 277 278 279 280 281 282 281 281 281 282 282 282 283 283 283 283 283 284 285 286 287 286 287 287 286 286 286 287 286 290 288 287 287 288 288 288 288 289 289 289 288 288 289 288 288 288 288 288 290 289 288 288 287 288 287 286 285 284 284 283 282 281 282 280 280 280 280 280 280 279 279 279 279 279 279 279 280 279 280 280 279 279
279 277 277 276 276 277 278 279 281 281 278 278 278 276 276 277 278 279 280 280 282 281 281 281 281 281 282 282 283 283 282 283 286 286 286 287 287 287 287 286 287 288 287 287 286 288 287 287 288 288 288 288 289 288 289 288 287 287 287 287 286 287 288 289 288 288 288 287 287 286 285 284 282 281 283 281 281 281 281 279 279 279 279 281 280 279 279 279 280 279 279 279 279 278 278 279 279
279 277 276 276 275 277 280 280 281 281 280 277 277 277 276 277 278 279 279 281 281 280 280 280 281 280 280 281 282 283 283 284 284 286 286 285 285 286 286 286 289 287 288 288 286 287 287 287 287 287 288 288 288 288 289 288 288 288 286 286 286 286 286 286 286 287 287 287 286 284 283 282 281 281 282 281 281 280 279 279 279 279 279 279 281 280 280 281 279 278 279 277 278 277 276 278 278
278 278 276 276 277 278 279 279 279 281 279 277 277 278 277 278 278 280 280 281 280 280 281 281 281 281 281 281 281 282 283 284 283 283 284 284 285 285 285 285 286 286 286 286 286 286 287 288 287 288 288 287 288 290 291 287 288 288 287 287 286 285 286 287 286 287 286 284 283 282 282 280 280 280 280 282 280 280 279 279 279 279 278 280 278 278 278 278 278 278 277 277 276 277 277 278 278
277 276 275 276 277 277 277 278 278 280 279 279 276 277 277 277 278 279 280 280 280 280 281 281 281 282 282 282 283 283 283 283 284 283 284 283 284 284 284 285 285 285 286 286 286 286 287 290 287 287 288 288 288 290 292 289 290 288 287 287 287 286 286 288 285 284 283 281 280 280 280 280 280 279 280 280 280 279 279 279 279 278 278 279 278 277 277 277 277 277 277 277 277 274 275 275 278
277 277 275 276 277 278 277 278 279 277 280 277 276 274 274 276 277 277 279 279 281 281 281 281 281 282 282 282 283 283 283 283 283 283 284 283 284 285 285 286 285 286 285 285 286 286 289 287 287 287 287 288 288 290 288 289 288 286 286 286 285 285 284 283 282 281 280 281 280 279 279 280 280 280 279 279 280 279 279 279 278 278 278 278 278 278 277 277 277 277 277 276 275 274 274 274 276
275 278 278 278 278 277 277 277 276 272 276 276 277 270 271 272 276 277 278 277 280 278 278 280 281 281 281 282 283 283 284 284 284 284 283 283 284 284 284 284 285 285 286 286 286 286 286 287 287 288 288 288 288 288 288 289 286 284 284 283 282 281 280 280 279 278 278 277 277 278 279 279 279 279 279 279 279 280 279 278 278 278 277 277 278 278 277 277 276 276 276 276 275 275 275 273 273
273 277 278 278 278 278 278 277 277 273 274 278 277 272 268 271 276 276 275 277 278 279 276 279 280 280 279 281 282 282 283 283 282 283 283 283 284 283 284 284 285 285 287 286 286 287 287 288 287 287 288 288 288 287 286 288 285 284 283 282 281 280 278 278 278 278 277 278 278 278 278 278 278 278 278 278 278 279 279 278 278 277 277 276 278 278 276 276 276 276 277 276 275 277 275 273 273
276 277 279 279 278 279 278 277 277 275 275 279 275 274 269 272 273 276 275 277 276 275 277 279 279 279 278 279 280 280 281 281 282 282 282 282 282 283 284 285 284 285 285 285 286 287 287 287 287 287 287 289 287 287 285 286 285 283 282 281 282 279 278 277 277 277 278 280 277 277 277 277 278 278 278 278 278 278 279 278 277 277 276 276 279 277 276 276 276 276 277 276 276 276 274 273 273
277 279 280 280 279 279 278 277 277 276 275 273 274 276 272 269 273 274 275 277 277 275 275 277 280 281 281 282 282 281 281 281 282 282 283 283 284 284 285 285 285 285 286 286 287 287 286 286 287 286 286 286 285 286 286 284 286 283 281 279 277 278 279 278 278 278 277 278 276 277 277 277 277 277 277 277 277 277 278 278 277 276 276 276 278 276 276 275 275 274 274 274 274 274 275 275 273
281 280 280 279 279 278 278 276 277 274 271 268 272 273 268 269 272 275 275 277 275 275 277 278 279 280 280 281 281 281 281 281 281 282 282 282 283 284 284 285 285 285 285 286 287 286 286 285 287 286 285 285 285 284 283 283 282 282 279 277 276 276 277 276 276 276 276 276 276 276 276 276 276 276 277 277 276 276 276 277 276 276 275 276 277 275 275 274 274 274 274 274 275 274 274 274 274
280 281 280 278 276 276 275 275 273 271 265 269 273 275 274 269 272 276 277 277 274 276 276 277 277 278 280 280 280 282 281 281 282 282 282 282 283 283 284 284 284 284 284 285 285 285 285 285 284 285 284 284 284 283 282 282 281 279 278 276 276 275 276 276 275 275 275 275 275 275 275 275 276 275 276 276 276 276 276 277 276 275 276 276 276 274 274 274 274 274 274 274 274 273 273 273 274
281 278 277 278 278 273 274 267 267 267 262 267 273 274 274 268 271 274 276 274 275 277 277 277 277 278 279 279 281 281 281 281 282 282 282 282 284 284 284 284 284 284 284 284 284 285 285 284 284 284 284 283 283 283 282 280 279 278 277 276 276 276 276 276 274 274 275 274 274 274 275 275 274 275 275 275 275 275 276 275 275 275 275 274 274 274 274 274 274 274 274 274 273 273 273 274 273
278 275 276 271 265 265 269 260 269 264 266 275 273 274 271 272 274 274 274 276 276 277 279 279 278 279 279 280 281 281 281 281 282 282 281 282 283 283 283 283 283 284 284 284 285 284 284 284 284 283 283 282 282 281 280 278 277 277 276 276 276 278 276 275 274 274 275 274 274 274 274 273 274 273 274 273 274 274 275 274 274 274 273 274 274 274 274 274 274 273 273 273 273 273 273 273 272
275 274 271 263 262 257 261 256 260 263 269 274 274 275 272 273 275 276 277 278 279 279 278 278 279 279 280 280 280 281 281 280 281 281 281 281 282 283 283 283 283 283 284 284 285 284 284 284 283 283 282 281 281 280 278 277 276 276 276 276 276 276 275 276 274 275 275 274 274 273 273 273 273 273 273 273 274 274 274 274 274 274 274 273 274 274 274 274 274 273 273 273 273 273 273 273 272
277 277 276 272 263 264 265 262 267 266 269 271 271 269 265 272 275 279 277 277 277 276 277 277 278 278 278 279 279 279 280 280 279 280 282 283 284 283 283 283 283 283 284 284 284 283 282 282 282 281 281 280 280 278 277 276 276 276 276 276 276 276 276 275 275 276 274 274 274 273 273 273 273 273 273 273 274 274 273 273 274 273 273 273 273 273 273 273 273 273 273 273 273 273 273 273 272
276 276 274 272 270 269 267 261 262 261 263 265 269 270 272 275 278 279 278 276 278 277 277 278 280 279 278 279 280 281 281 281 281 281 282 282 282 282 282 282 282 283 284 283 283 282 282 282 281 280 280 279 278 278 276 275 275 276 275 275 275 277 277 276 275 275 274 274 273 273 273 273 273 273 273 274 273 273 273 272 273 272 273 272 272 273 272 272 272 272 272 272 271 273 272 272 272
278 275 269 274 276 272 265 266 265 265 262 264 265 273 273 275 277 279 278 278 278 276 277 278 279 279 277 279 280 280 280 280 281 281 281 282 282 282 282 282 282 283 283 283 283 282 282 281 280 280 279 277 277 277 275 275 275 275 275 275 274 274 274 273 273 273 273 273 273 273 273 273 273 273 273 274 273 273 272 272 272 272 272 272 272 272 272 272 272 272 271 271 271 271 272 271 271
276 272 276 277 274 270 270 267 259 256 263 264 267 270 271 273 270 275 277 277 277 277 276 275 277 277 278 280 280 280 281 281 281 281 281 282 282 283 283 282 282 282 283 282 283 282 281 281 279 278 278 276 275 275 275 275 274 274 274 274 274 274 274 273 273 273 273 273 273 273 273 273 272 273 273 273 273 272 272 273 271 271 271 272 272 271 271 271 271 271 271 271 271 271 271 271 271
278 279 279 277 268 270 266 263 263 264 260 260 266 268 270 273 274 275 275 276 277 277 277 277 279 279 279 280 280 280 280 280 281 281 282 282 282 282 282 282 282 283 283 282 282 281 280 280 280 278 277 276 275 275 275 274 274 275 275 274 273 273 274 273 273 273 273 272 272 272 272 272 272 273 273 272 271 271 271 271 271 271 271 271 271 271 271 271 271 270 271 271 271 271 271 271 271
276 277 280 277 274 269 266 266 264 265 262 263 264 265 269 274 272 274 276 276 276 275 276 277 278 279 279 279 280 280 281 281 281 282 282 282 282 282 282 282 283 283 282 282 281 280 279 279 278 278 276 275 274 274 274 274 274 274 274 273 273 273 273 273 273 272 272 272 272 272 272 271 272 272 271 271 271 271 271 270 270 271 271 270 270 270 270 270 270 270 270 270 271 271 271 271 272
274 274 271 273 271 274 274 268 267 267 259 260 260 265 268 273 275 276 277 276 276 277 278 278 279 279 279 279 280 281 281 281 281 282 282 282 282 282 282 281 282 282 281 280 280 279 279 278 277 276 275 274 274 274 274 274 274 274 273 272 273 273 272 273 272 272 272 271 272 272 271 272 272 271 271 270 270 270 270 270 270 270 270 270 270 270 270 270 270 270 270 270 271 271 271 271 272
274 275 275 275 271 270 269 267 268 261 267 262 260 268 271 277 277 278 277 277 276 276 278 279 279 279 279 280 280 280 281 281 281 282 281 282 282 282 281 281 281 281 280 280 279 278 277 277 276 275 275 274 274 274 274 273 273 273 272 272 272 272 272 272 272 271 272 271 271 271 271 271 270 270 270 270 270 270 270 270 270 270 270 269 270 270 270 270 269 269 270 271 271 271 271 271 271
Wind_Speed
7 6 5 3 1 2 1 5 6 4 6 8 4 5 2 3 2 2 8 1 3 4 4 9 16 13 9 7 14 12 8 6 3 1 2 1 3 4 9 10 10 11 9 10 10 10 13 17 24 24 23 21 22 22 23 23 23 24 25 25 25 24 23 23 22 22 22 22 22 22 22 22 22 22 21 21 20 20 21 20 20 20 20 19 19 21 21 22 22 20 18 19 19 19 20 21 22
4 6 4 2 1 2 2 3 6 4 5 8 8 2 3 3 4 8 4 4 2 6 3 9 12 16 16 14 11 7 12 9 6 2 2 4 5 3 9 10 10 9 10 9 11 12 12 11 21 21 19 19 20 21 22 22 23 23 24 24 23 23 23 22 22 23 23 22 22 22 22 22 22 22 21 21 20 19 20 20 20 20 20 20 21 21 21 21 21 18 18 19 20 19 19 20 20
3 5 3 3 3 4 2 6 5 2 7 8 5 5 2 8 10 7 8 6 11 11 8 8 8 5 3 4 12 7 4 5 5 3 2 7 5 7 8 9 7 8 8 8 9 10 9 10 17 17 17 19 19 21 22 22 23 23 23 23 23 23 23 23 23 22 22 22 22 22 22 22 22 21 21 21 20 20 20 20 19 20 20 20 20 20 21 21 21 20 19 20 19 20 21 21 21
2 1 1 1 1 6 6 5 5 4 8 6 5 5 5 7 8 7 8 5 8 9 3 3 6 5 1 12 6 6 7 3 3 2 1 2 2 7 7 7 7 6 4 6 7 8 8 12 17 17 18 20 21 22 22 23 24 24 24 24 24 24 24 23 23 22 22 22 22 22 22 22 22 21 21 21 21 21 20 20 20 20 20 19 20 19 19 21 21 19 19 20 20 21 21 20 20
2 2 0 4 7 6 5 4 4 3 7 2 5 5 7 7 8 8 7 8 8 3 2 4 5 1 5 6 3 2 2 1 4 3 1 1 3 5 5 6 6 5 5 6 7 7 8 16 16 17 19 20 21 22 22 22 22 22 23 23 22 22 22 22 22 22 22 22 21 21 22 22 23 23 23 22 22 22 22 21 21 20 20 20 21 20 21 21 20 20 19 19 17 16 16 17 17
2 5 7 7 6 2 5 7 8 11 5 3 4 5 5 6 9 9 10 12 9 8 4 5 3 4 5 4 2 2 2 2 1 2 1 2 3 4 5 5 4 4 5 5 6 6 7 15 16 17 18 19 20 20 19 19 20 20 20 20 21 21 20 20 20 20 20 20 20 21 21 22 23 23 23 23 23 23 22 22 21 21 21 20 20 20 20 20 20 20 19 18 17 16 16 15 16
1 4 6 9 6 6 7 10 9 7 7 4 4 5 3 3 3 4 5 5 8 8 8 6 7 6 7 1 1 1 0 2 1 1 1 3 3 3 3 3 4 4 5 5 5 6 8 15 14 15 16 17 17 18 18 19 20 20 20 19 19 20 20 19 19 19 19 18 19 19 20 21 21 22 22 22 22 23 23 22 21 21 20 20 20 19 20 20 18 18 18 18 17 16 16 16 17
0 6 4 11 7 6 8 7 8 2 3 4 2 5 3 3 2 5 8 4 6 4 2 3 1 6 2 3 2 0 0 1 2 2 2 2 2 4 3 3 4 4 5 5 5 5 8 14 14 14 15 16 16 17 17 18 19 19 19 19 21 20 18 19 20 19 20 20 17 17 18 19 20 20 21 22 21 21 22 22 21 20 20 20 20 19 18 17 18 18 17 17 17 16 16 17 16
5 8 1 11 9 4 6 9 6 2 6 6 8 5 8 6 7 7 10 6 5 6 7 2 4 5 0 4 3 1 1 3 3 3 2 3 3 3 1 3 3 4 6 6 5 5 6 10 12 14 14 16 16 17 16 16 17 18 19 18 21 21 20 20 21 20 20 21 20 18 16 18 19 18 19 20 20 20 20 21 21 20 19 19 20 19 18 18 17 17 17 17 17 17 16 16 16
3 5 4 6 3 12 9 4 4 3 6 6 8 7 7 6 9 8 7 8 4 2 8 7 4 9 6 7 3 1 1 2 1 2 2 2 2 1 1 2 3 5 6 7 5 5 4 8 11 12 14 14 15 15 16 15 15 19 20 19 18 20 20 20 21 20 21 21 20 20 19 18 19 18 17 19 20 20 19 19 20 20 19 19 19 18 18 17 17 17 17 18 17 17 16 16 16
4 5 3 10 8 9 8 8 6 5 6 3 7 9 7 7 9 10 9 9 6 3 2 5 8 7 3 3 2 0 0 2 2 2 3 3 1 1 2 3 3 3 5 6 5 4 5 5 9 11 12 13 14 14 15 15 15 17 19 20 19 19 19 20 20 19 20 20 20 20 20 20 19 19 17 18 20 21 20 19 19 18 18 18 17 18 18 17 16 16 16 16 17 16 17 17 17
6 3 5 8 6 8 5 9 7 6 6 5 5 8 4 6 4 5 7 9 6 7 6 6 5 6 6 2 2 0 2 1 1 1 3 3 1 1 2 3 4 5 4 5 5 5 5 5 5 8 11 13 13 12 13 13 14 16 18 19 19 18 19 19 20 18 19 19 20 21 20 20 19 20 20 18 19 20 20 20 19 18 19 19 18 18 18 18 17 17 17 15 15 16 15 16 18
9 4 10 8 3 8 8 9 6 6 3 6 4 6 5 10 8 7 7 8 8 7 8 11 2 3 3 2 1 0 2 1 2 2 3 2 2 2 2 3 5 5 6 6 4 6 5 5 6 5 7 10 10 11 11 12 14 14 17 18 19 18 18 18 19 18 18 18 18 20 21 19 20 20 20 19 20 20 20 20 19 19 20 20 19 18 18 18 17 17 18 17 15 15 15 16 16
6 3 6 8 1 5 7 6 4 5 4 3 6 7 9 4 5 5 1 9 7 4 0 5 3 4 4 1 1 2 1 1 2 2 2 4 3 3 4 5 5 6 6 5 6 6 5 5 6 5 4 4 4 6 9 10 13 13 15 17 18 17 17 18 19 18 17 17 17 18 20 19 20 20 20 20 19 20 20 20 21 21 21 20 20 19 18 18 18 17 17 18 17 16 17 17 18
8 2 7 5 4 4 2 5 5 6 3 4 4 5 4 6 2 6 8 6 4 2 5 2 0 1 0 2 1 0 1 2 3 3 3 4 5 5 5 5 6 6 7 6 6 5 7 5 6 5 4 4 4 4 4 6 11 12 11 15 17 15 16 17 17 17 17 15 14 16 17 17 16 17 19 18 19 20 20 20 21 21 21 21 20 19 19 19 19 18 17 17 17 17 18 19 20
3 7 5 6 3 5 2 6 2 7 3 7 7 9 16 10 7 2 5 1 2 2 2 2 5 2 0 3 0 1 1 2 3 3 3 5 6 5 5 6 5 6 6 6 6 6 6 5 5 4 3 4 4 5 6 6 8 12 11 11 14 12 14 15 16 13 13 12 12 13 14 9 10 10 17 11 17 17 20 18 20 20 22 21 21 20 19 19 20 19 18 17 17 17 18 19 22
4 6 8 5 5 5 3 3 2 5 6 5 1 1 9 4 3 8 4 3 11 4 5 2 2 3 3 1 1 2 3 3 4 3 4 5 5 6 5 5 4 4 4 6 5 6 6 4 4 2 3 4 4 4 4 5 7 10 7 8 11 11 12 12 14 11 10 8 7 8 8 5 5 5 7 7 12 9 16 19 19 21 22 21 22 20 20 20 20 20 20 19 18 17 17 18 19
6 8 6 9 2 5 2 3 3 5 6 2 7 4 14 6 2 2 1 10 7 4 7 2 5 4 0 1 2 2 3 3 3 3 5 5 4 5 5 5 3 5 5 5 5 4 4 4 4 2 3 4 4 4 4 5 5 7 6 5 5 6 6 8 7 7 8 5 6 4 4 3 4 4 5 7 6 8 10 19 19 21 22 22 22 22 22 22 21 20 20 20 19 17 16 8 9
8 4 6 8 1 1 1 5 9 7 5 5 3 1 4 6 3 1 5 4 3 6 3 2 2 2 2 2 2 3 3 4 4 3 4 4 3 3 3 4 4 3 3 2 5 3 3 4 4 3 4 4 5 5 5 6 6 5 5 5 5 7 5 5 5 6 5 5 4 4 3 4 4 4 4 7 7 11 10 15 17 19 20 21 22 22 21 22 22 21 21 20 16 14 8 6 7
8 8 11 7 2 6 8 7 7 7 10 9 9 4 8 4 2 2 5 4 7 7 2 3 3 1 1 2 3 3 3 4 4 3 4 4 2 1 3 4 4 4 3 2 1 3 2 3 4 3 3 4 4 6 5 6 5 5 5 5 6 5 4 4 5 6 6 5 5 4 4 3 4 4 6 9 9 6 7 10 13 14 14 14 19 13 15 15 20 17 18 17 9 6 6 6 7
3 7 5 5 4 10 5 11 9 7 10 8 8 5 9 5 3 1 6 9 5 2 1 2 2 1 1 2 4 3 3 4 5 4 4 3 3 1 1 2 2 3 3 3 3 3 3 3 4 4 4 3 4 6 5 6 5 6 6 6 5 6 4 5 6 6 6 5 6 4 4 3 4 5 4 5 6 6 6 6 6 7 6 7 12 9 9 9 10 8 8 8 6 7 7 7 7
6 5 4 8 8 12 4 8 8 8 7 11 5 9 4 2 8 6 2 9 1 1 0 1 3 2 2 2 3 2 3 4 5 4 3 2 2 3 4 4 2 2 3 2 4 3 4 4 3 3 4 4 4 4 4 4 6 6 6 6 6 6 6 6 6 7 7 7 5 5 4 5 5 5 4 5 5 5 6 6 6 6 7 7 8 8 8 8 8 8 8 8 7 7 7 7 7
13 6 7 7 5 11 1 3 3 6 5 6 4 2 3 5 4 2 5 5 1 3 2 3 3 4 4 2 2 1 2 3 3 3 2 3 3 3 4 4 2 2 3 3 3 2 3 4 5 4 4 4 4 4 4 4 5 4 5 6 5 6 6 6 6 6 7 6 6 4 5 5 4 4 5 4 6 5 5 6 6 5 6 7 8 8 8 8 8 8 8 8 8 8 8 7 7
16 7 6 8 10 10 6 8 8 8 12 6 4 2 7 2 9 1 4 1 1 1 3 1 1 2 2 1 1 3 3 3 3 4 3 3 3 3 4 4 2 2 2 3 2 3 3 5 4 3 3 3 3 3 3 4 4 5 5 5 6 5 5 5 6 6 6 6 5 6 4 3 3 4 5 5 5 4 6 5 5 5 5 6 6 7 8 7 8 8 8 9 9 9 9 8 7
12 11 7 5 9 6 8 10 11 11 8 6 8 10 2 3 4 1 2 1 3 3 1 1 1 1 1 1 1 2 3 3 3 3 3 3 3 3 3 2 1 1 3 3 3 3 4 3 3 4 3 3 3 3 3 3 3 4 5 5 6 5 5 5 6 6 6 6 5 5 4 4 4 5 4 5 4 6 5 5 5 5 5 5 5 6 6 7 8 8 8 8 8 8 8 8 8
4 9 6 7 6 7 8 9 9 10 5 9 15 7 4 6 5 4 1 2 3 4 4 2 1 1 2 3 2 2 2 3 4 5 4 4 5 5 5 4 4 4 3 3 3 3 3 3 3 3 2 2 2 3 3 3 4 4 4 4 4 4 5 5 5 6 6 6 6 5 3 2 4 3 4 5 6 6 6 5 6 5 5 5 6 6 6 6 7 8 8 8 8 8 8 8 8
7 12 11 13 9 8 3 8 3 2 3 2 9 3 0 2 2 1 2 2 3 4 4 2 1 3 3 3 2 3 3 4 3 2 6 5 5 4 4 4 4 3 2 3 3 3 2 2 3 3 3 2 2 3 3 4 3 4 4 4 5 4 5 6 6 6 6 6 6 5 3 3 3 4 5 5 5 6 6 6 6 5 5 6 5 6 6 6 6 7 7 8 8 8 8 7 7
10 13 12 10 8 7 5 8 7 4 2 6 12 6 3 7 4 2 2 5 2 2 4 4 2 4 3 3 3 2 4 2 1 4 4 4 3 2 2 2 3 3 2 3 3 3 3 2 2 3 3 2 2 4 3 4 4 4 4 4 5 4 4 6 6 6 6 6 5 4 3 5 4 4 5 6 7 7 6 6 5 6 6 6 5 6 6 6 6 6 7 7 7 7 7 6 7
9 14 13 6 5 5 4 2 2 3 2 4 3 5 6 6 1 3 5 4 4 3 3 4 4 3 3 3 3 3 2 1 2 3 0 1 1 1 1 1 2 3 3 3 5 4 3 3 3 4 3 3 4 4 4 4 4 3 4 4 4 4 5 6 5 5 6 5 4 4 4 5 4 4 6 6 7 6 6 5 5 6 5 6 6 6 6 6 6 6 7 7 7 7 7 8 6
4 5 9 5 3 6 7 1 1 2 1 4 1 1 5 3 4 7 6 3 4 3 0 1 1 3 3 2 3 1 1 1 3 1 0 1 0 0 0 3 2 3 4 4 3 4 3 3 3 3 3 4 5 5 4 3 4 3 3 3 4 5 6 6 5 5 5 5 4 5 4 4 4 6 6 6 6 5 5 5 5 6 5 5 5 5 6 6 7 7 8 7 7 7 7 7 7
5 2 5 2 5 2 3 1 2 3 1 2 1 3 3 5 6 6 5 1 2 1 1 2 4 4 2 1 1 1 0 0 1 0 0 2 2 2 2 3 3 4 3 4 4 5 4 4 2 3 3 5 5 6 5 4 3 3 4 4 5 4 6 6 6 6 5 5 5 5 4 5 6 6 6 5 6 5 6 6 5 5 5 5 5 5 5 6 6 7 7 8 7 7 7 7 7
2 1 5 5 6 2 3 3 2 2 1 5 5 4 2 4 5 6 4 0 1 1 0 1 2 2 1 1 1 1 1 2 2 2 2 3 3 3 2 4 4 4 3 4 4 4 3 3 3 3 4 5 6 4 4 4 3 2 2 4 5 4 6 6 5 5 5 5 4 5 5 6 6 6 6 6 6 6 5 5 5 5 5 5 5 5 5 6 6 6 6 6 8 8 8 8 6
4 6 1 2 3 2 1 0 1 3 1 4 2 2 1 3 6 6 4 1 2 0 0 1 1 2 3 2 2 1 1 1 3 3 4 4 5 4 4 4 5 4 3 3 3 4 3 4 4 4 4 5 4 5 5 4 3 3 3 3 4 4 5 5 4 5 5 5 5 6 6 7 6 6 7 6 6 5 5 5 6 5 5 5 5 5 5 5 5 6 6 7 6 7 8 8 8
4 3 3 1 2 1 1 3 3 5 2 1 6 5 3 2 2 4 5 1 1 2 1 2 1 1 2 2 2 2 2 2 3 4 5 4 5 5 5 5 5 5 4 4 2 2 1 2 3 3 4 4 4 4 4 3 2 2 3 4 3 4 4 3 4 5 5 5 5 6 6 6 6 6 6 5 5 5 5 5 5 6 5 5 5 5 5 5 5 5 7 7 7 7 7 8 8
2 3 5 3 1 1 1 1 3 3 6 6 3 5 2 3 3 4 6 0 0 2 4 3 2 3 2 2 2 2 3 2 3 3 5 6 6 5 4 5 5 5 4 4 3 2 2 3 3 4 4 5 5 4 4 3 3 3 3 3 4 4 4 4 4 5 4 5 6 6 6 6 7 6 5 6 6 6 6 6 5 5 5 5 5 5 5 5 5 6 7 8 7 6 6 7 7
1 4 3 3 5 1 1 1 1 2 2 4 1 3 3 4 4 5 5 1 1 4 3 2 1 1 2 1 1 2 3 4 5 4 4 4 5 5 5 4 4 4 4 3 3 3 4 3 4 4 4 3 4 4 4 4 3 3 4 4 5 4 4 4 5 4 4 5 6 6 6 6 6 7 6 6 6 6 5 6 6 5 5 5 6 6 6 6 7 8 8 7 8 7 5 5 7
4 5 6 3 3 1 2 2 3 1 2 1 1 3 3 5 6 6 5 2 1 1 4 3 2 3 3 2 2 3 4 4 3 4 5 3 4 3 3 3 4 5 4 4 3 3 3 2 3 5 4 4 4 5 4 3 3 4 2 3 4 4 5 4 5 4 5 5 6 6 7 6 6 6 7 6 6 6 6 6 6 6 6 5 5 5 5 6 6 6 7 6 7 8 7 5 7
5 7 6 2 2 2 0 0 3 3 1 1 1 2 3 6 5 6 4 1 5 5 4 4 4 3 3 3 4 4 5 4 4 4 3 4 4 4 4 4 4 5 6 5 3 3 3 3 3 3 3 4 4 3 3 2 1 1 2 3 3 4 5 6 5 5 5 6 6 6 6 6 6 6 6 6 6 7 7 6 6 6 6 6 6 5 5 6 6 6 6 7 4 7 6 7 7
3 7 4 6 2 2 3 2 4 3 2 2 1 1 4 6 6 5 4 5 4 4 5 5 5 5 4 4 5 5 4 5 5 6 5 5 4 4 4 4 4 2 4 4 3 3 3 3 3 3 3 4 4 4 3 2 2 3 3 3 4 4 2 3 3 4 5 6 5 5 5 5 5 6 6 7 7 7 7 6 6 6 6 6 7 7 5 6 6 7 7 7 9 4 5 5 7
5 1 1 1 1 2 1 2 4 4 2 1 2 1 4 4 4 5 7 4 4 4 5 5 5 5 6 7 6 5 5 5 6 6 6 5 4 3 3 4 4 3 4 4 3 3 3 3 3 4 4 4 4 4 3 3 3 3 4 4 5 4 5 4 3 3 4 5 6 5 5 5 5 6 7 7 7 7 6 6 6 6 6 5 6 7 7 7 7 7 7 7 7 9 6 5 6
3 5 4 3 1 1 1 2 4 3 1 4 3 2 4 2 3 4 4 3 4 3 3 5 5 5 4 4 5 5 6 6 6 6 5 4 3 2 3 4 4 3 3 3 2 3 3 3 3 3 4 4 4 4 4 4 4 6 5 5 4 5 3 4 4 6 6 6 7 7 8 7 7 7 8 7 7 7 6 5 6 6 6 6 6 6 6 6 7 6 7 7 7 7 9 6 5
3 1 2 1 0 2 3 4 5 4 2 1 2 2 2 3 4 8 7 4 5 2 4 7 6 5 5 6 7 6 5 5 7 6 5 4 3 3 4 4 3 3 3 2 2 3 2 3 3 5 4 5 5 4 4 4 5 6 7 7 8 7 8 7 8 8 8 7 6 5 5 5 5 6 6 6 7 6 6 7 6 7 7 7 7 6 5 6 7 8 7 7 7 6 7 8 7
4 2 2 1 1 1 2 5 2 2 1 1 1 1 2 2 4 4 3 1 6 7 3 8 6 5 4 6 6 6 6 6 4 4 5 4 2 2 4 3 2 2 3 2 2 2 2 3 4 4 4 4 4 4 5 5 6 5 5 5 4 6 7 5 5 5 5 6 5 6 5 5 4 6 6 6 6 6 7 7 6 6 7 7 7 5 6 7 7 6 7 6 6 7 6 7 7
1 0 2 1 3 2 1 2 2 2 2 3 4 2 1 2 3 3 2 1 5 5 4 4 3 3 4 5 5 5 5 5 5 5 4 4 3 3 4 4 3 2 3 2 2 3 4 4 4 4 4 4 4 4 6 6 6 5 5 5 6 6 5 7 6 6 5 5 6 6 6 6 6 5 6 7 6 6 8 7 6 7 7 7 7 6 7 6 6 6 6 6 5 5 5 6 7
2 1 1 1 1 1 1 2 2 0 1 5 5 2 1 3 5 2 1 1 3 4 3 2 2 1 1 1 2 2 4 4 4 4 4 3 3 3 3 3 3 3 2 1 1 2 3 4 4 4 5 4 4 5 5 6 6 5 5 5 6 5 5 6 5 5 6 6 7 6 6 6 6 6 6 6 6 6 7 7 7 7 7 7 7 7 6 7 7 7 7 7 6 6 5 6 6
1 2 1 2 2 2 2 3 4 4 3 3 4 1 1 5 4 3 1 1 5 5 4 4 4 3 3 3 3 4 4 4 4 5 4 4 4 4 3 3 3 2 2 2 1 3 4 4 4 4 4 4 4 5 6 6 6 6 6 6 6 7 6 5 5 6 6 6 7 7 7 7 7 7 7 6 7 7 7 7 7 7 7 7 8 7 7 7 7 6 6 6 6 6 5 5 6
2 3 2 2 4 3 2 5 2 3 1 4 1 0 1 2 3 6 4 4 4 4 3 4 4 5 6 6 5 5 4 4 4 4 3 4 5 4 4 3 3 2 2 2 3 3 3 3 3 5 3 4 4 5 5 6 5 5 6 6 6 6 7 6 7 7 6 7 7 7 7 7 6 6 6 6 6 7 7 7 7 7 7 8 7 6 7 7 7 7 6 6 6 6 6 6 7
2 1 2 2 1 6 2 4 4 1 4 3 2 0 1 0 4 5 7 3 3 5 4 4 5 5 5 4 4 5 5 5 4 4 4 3 4 4 2 2 2 2 2 3 2 2 3 3 3 4 5 5 5 5 6 6 6 6 5 5 6 6 6 6 7 7 7 7 7 8 7 7 7 7 6 7 7 8 7 7 7 7 6 6 7 6 6 7 6 6 6 6 6 6 5 6 6
5 5 5 3 3 5 2 4 2 1 2 0 1 2 1 5 7 2 3 6 5 5 5 6 5 5 6 6 6 5 4 5 4 4 4 4 4 4 4 3 2 1 1 1 1 1 2 3 4 5 4 4 5 5 6 6 6 6 6 6 5 6 6 6 6 6 6 7 7 7 8 8 7 8 7 7 7 8 7 7 8 7 6 6 7 7 7 7 7 6 6 6 6 6 6 6 6
4 1 2 4 3 3 1 3 2 4 6 3 0 1 2 4 7 5 5 7 8 7 7 5 5 5 5 5 5 5 5 4 4 4 4 4 5 4 3 3 2 1 0 0 1 2 3 3 4 5 3 4 4 5 6 6 6 5 5 5 6 5 5 5 5 6 7 6 6 7 7 7 7 7 8 8 7 7 6 7 7 6 6 6 6 7 7 7 7 6 6 7 7 6 6 6 6
0 1 1 3 6 2 1 1 1 2 6 6 4 1 3 2 3 1 8 4 4 4 4 4 4 5 4 5 5 5 4 4 3 3 4 4 5 4 4 3 2 1 1 0 1 2 3 3 4 4 4 4 5 5 5 6 5 5 5 5 5 5 5 5 5 5 6 7 7 7 6 6 7 7 7 7 8 7 7 7 7 7 7 6 7 7 7 7 7 7 6 6 6 5 6 6 6
1 1 3 6 0 3 1 3 2 2 3 6 1 3 3 3 1 4 1 2 4 4 5 4 6 5 4 4 4 4 4 4 4 4 4 4 4 4 3 3 2 2 1 0 2 2 4 3 3 3 4 4 4 5 5 5 5 5 4 5 6 5 5 4 5 5 6 6 6 6 7 6 6 7 6 7 7 7 8 8 7 7 7 7 6 7 7 6 7 7 6 6 6 6 7 8 6
0 1 0 2 2 7 5 1 1 1 3 5 1 7 4 7 2 1 2 3 5 4 5 5 6 6 3 4 5 5 5 4 4 4 4 4 4 3 3 3 2 2 1 1 2 3 4 4 4 4 4 4 4 4 4 4 4 4 5 5 5 5 5 5 6 6 7 6 6 6 6 6 6 6 7 6 7 7 7 7 7 7 7 7 6 6 6 6 6 6 6 6 6 6 6 7 6
1 1 2 1 2 3 3 1 2 4 1 4 2 2 7 5 4 1 2 3 6 5 5 4 5 5 5 7 5 5 5 5 4 5 5 5 4 4 4 3 3 2 1 3 3 2 3 4 4 4 4 4 3 4 4 4 4 4 4 5 5 5 5 5 5 6 6 6 6 6 6 7 7 7 6 7 7 7 7 8 7 7 7 6 7 6 6 6 6 5 6 5 6 6 6 6 6
1 0 2 1 0 0 4 3 2 2 3 5 7 4 6 4 6 1 3 3 5 6 5 4 6 6 6 6 7 7 5 5 5 4 4 4 4 4 3 3 1 0 1 4 3 3 3 3 3 4 4 3 3 3 3 3 3 3 3 4 4 5 5 5 5 6 6 6 7 7 7 7 7 7 7 7 7 7 7 7 7 7 6 7 6 6 6 6 5 5 6 6 6 6 6 7 7
0 1 1 0 1 0 1 1 3 5 2 5 7 4 3 5 3 6 4 5 6 4 4 5 7 7 7 6 6 6 6 5 5 5 5 4 5 4 4 3 0 4 4 3 3 3 3 2 3 3 3 3 3 4 3 4 4 3 4 4 4 4 5 5 6 6 6 7 7 7 7 7 7 7 7 7 7 7 7 8 7 7 7 7 7 6 6 6 6 5 5 5 6 6 7 7 7
3 2 2 1 1 1 3 1 1 3 3 2 1 7 6 5 5 6 6 5 6 5 5 6 6 7 7 7 7 6 6 5 5 5 5 5 5 4 4 1 2 3 3 3 3 4 2 2 3 3 4 3 4 3 3 3 3 4 4 5 6 6 7 6 6 6 6 6 6 7 7 6 6 7 7 7 7 7 7 7 7 7 7 7 7 7 6 5 5 5 5 6 7 7 8 8 8
1 0 1 2 1 0 0 4 2 2 2 2 2 8 8 10 2 7 6 6 4 6 5 5 6 7 7 7 7 7 6 6 5 5 5 5 5 5 3 1 3 4 4 4 3 3 3 3 3 3 3 3 3 4 3 4 3 3 4 5 5 5 5 6 6 6 7 7 7 7 7 7 7 7 6 7 7 7 7 7 7 7 7 7 6 7 6 5 6 6 7 6 6 8 9 9 9
Wind_Direction
330 318 310 294 309 120 58 7 55 351 62 50 71 23 42 46 75 58 33 233 30 57 23 52 42 33 66 90 102 87 37 71 12 296 97 48 321 16 2 352 336 339 335 330 333 334 343 345 18 19 24 28 28 32 32 29 29 29 29 30 29 28 29 29 29 29 29 29 28 28 26 26 29 31 32 31 29 28 30 31 29 28 25 27 29 27 25 32 30 29 24 19 22 25 21 19 19
306 309 305 273 207 106 2 81 104 46 70 77 37 51 43 26 57 33 14 36 69 142 127 87 83 92 99 112 122 119 55 40 35 97 153 8 306 27 357 347 346 345 331 335 339 343 343 330 17 20 21 27 29 32 31 30 29 30 29 28 27 27 27 25 26 27 27 26 26 26 26 25 25 26 27 28 30 31 29 30 29 29 28 29 27 28 30 29 32 28 28 28 18 18 20 17 19
309 342 335 42 34 76 83 36 71 56 75 70 52 38 62 62 63 41 33 96 131 146 139 111 96 56 58 167 54 14 137 60 25 33 72 1 33 330 338 317 321 326 317 333 326 332 325 331 17 19 15 28 29 32 31 29 28 28 27 27 27 26 25 24 25 25 25 25 25 25 25 25 23 23 25 26 26 26 28 30 32 31 29 30 28 22 25 29 29 25 27 28 22 19 16 14 17
325 309 340 78 57 29 52 28 65 80 88 101 87 47 62 90 70 63 42 74 145 161 159 36 39 338 23 52 59 80 60 43 58 335 50 321 187 237 262 273 285 269 317 325 322 321 330 337 12 19 19 22 25 28 29 25 25 25 25 24 24 23 22 23 22 22 24 25 25 25 25 23 23 23 23 23 24 26 26 27 29 28 27 29 30 25 24 28 25 24 28 30 29 18 18 16 13
21 308 184 86 98 23 80 65 62 34 67 9 102 75 81 88 94 74 48 56 46 45 45 138 93 349 79 81 352 39 18 251 80 79 174 233 208 248 294 314 337 341 350 328 319 324 329 333 11 14 14 19 22 24 23 22 23 24 25 23 22 22 22 21 21 21 22 23 25 26 26 24 22 22 22 22 22 21 23 23 24 24 25 22 24 24 24 25 22 18 21 24 28 33 23 17 18
55 42 26 67 69 143 60 62 50 66 53 1 80 92 117 96 101 97 78 62 49 39 38 62 134 165 57 22 3 59 295 99 60 69 1 266 278 291 300 294 298 318 329 317 313 321 327 332 6 7 11 15 18 21 22 22 22 22 22 21 21 20 20 20 21 21 20 20 22 23 25 25 24 22 20 21 21 20 18 20 22 21 18 20 21 19 21 19 18 16 15 16 21 22 24 23 22
37 38 9 46 49 43 76 90 80 73 39 355 61 72 87 101 112 119 145 92 57 54 18 91 104 123 83 113 48 79 349 314 78 8 342 284 310 313 320 329 336 328 326 312 318 324 320 342 353 2 7 11 15 16 18 20 19 19 19 18 17 17 15 16 17 18 18 18 17 19 20 20 22 23 21 18 19 20 19 17 17 19 18 16 17 18 17 17 16 11 12 13 12 15 19 20 19
39 99 348 84 60 56 63 74 66 341 51 24 349 85 68 103 73 61 33 68 4 15 29 152 216 87 57 1 112 254 333 74 172 204 229 253 288 303 291 308 343 337 319 312 307 312 318 327 348 1 8 12 13 13 13 14 15 13 15 12 17 19 15 13 15 14 15 16 16 15 15 18 17 17 19 18 16 14 15 16 15 15 17 15 13 12 17 16 10 8 8 10 10 11 10 14 16
21 77 11 71 67 66 80 68 94 33 71 35 36 59 76 58 72 89 76 95 129 52 26 306 249 59 180 47 61 134 325 177 203 246 240 254 277 289 263 333 319 292 297 297 305 310 315 316 340 0 3 6 9 8 8 8 8 13 15 12 16 15 14 13 14 12 13 13 14 13 14 13 15 14 14 15 16 12 10 11 12 12 13 14 11 9 8 10 10 8 7 7 7 9 8 7 9
38 76 31 90 132 85 93 61 62 47 73 55 51 35 62 61 68 67 102 60 70 84 33 40 77 109 139 91 116 142 299 224 215 262 289 296 239 251 319 281 279 288 303 304 303 300 299 309 329 351 352 349 353 357 4 6 6 17 16 14 13 15 14 12 12 12 13 13 15 14 20 17 15 13 10 8 13 13 9 8 8 10 11 8 8 8 5 4 4 5 5 5 4 5 6 4 3
50 21 110 77 60 95 87 109 96 89 66 55 47 35 21 77 76 75 74 94 43 64 347 11 68 102 116 47 56 353 318 37 45 305 328 338 310 1 320 302 288 278 279 288 292 306 307 310 317 331 334 334 339 344 356 7 7 13 14 14 11 13 14 14 13 14 14 14 15 14 13 12 13 12 8 6 10 11 12 8 6 5 4 1 2 4 3 1 359 0 2 1 2 2 2 3 3
56 19 43 88 65 121 126 109 103 88 71 45 67 31 6 48 43 48 24 56 360 50 50 346 132 156 78 81 24 259 235 360 54 307 323 340 339 309 312 291 288 287 276 281 307 305 303 310 313 306 314 322 341 343 349 1 8 11 11 14 12 10 13 14 13 15 15 16 17 15 12 12 12 11 9 7 8 10 10 9 4 1 359 360 2 1 0 359 356 356 358 359 358 1 0 360 2
108 109 85 74 112 99 121 102 102 101 76 26 36 15 19 52 56 75 71 63 18 38 12 346 149 248 76 42 41 125 275 345 315 353 314 323 301 302 288 290 289 294 298 299 311 290 298 303 300 303 303 331 343 347 345 346 3 8 9 11 12 9 12 14 13 13 14 14 16 17 15 15 13 12 12 9 7 9 9 7 2 0 358 360 358 359 358 357 356 356 356 356 354 358 2 357 358
92 144 104 101 15 89 106 106 114 100 56 107 65 55 33 54 22 35 96 61 10 40 253 323 19 66 90 133 299 276 236 310 322 311 314 298 308 310 296 289 296 298 293 302 290 284 294 294 296 294 300 318 339 343 341 335 343 6 7 10 11 8 8 14 12 11 11 11 13 13 17 17 14 11 13 11 6 8 8 6 1 0 359 358 356 355 356 355 353 353 354 353 352 354 358 357 355
107 158 84 86 104 86 3 118 157 109 94 63 17 47 56 31 68 51 51 90 25 256 286 338 194 318 79 162 298 268 272 271 281 296 307 306 302 302 291 290 287 289 292 290 286 294 285 288 292 292 296 317 334 348 345 336 334 352 5 12 12 8 8 13 11 9 6 8 13 15 18 18 12 9 9 7 7 8 7 5 358 357 356 355 353 352 352 352 350 347 349 350 350 352 355 354 351
88 92 72 97 71 114 18 94 69 100 96 105 123 110 72 33 10 59 6 93 169 341 43 343 3 88 64 76 188 225 263 269 262 278 296 300 298 292 293 288 284 282 282 282 287 284 277 282 283 287 308 317 336 343 346 348 337 344 356 1 8 4 8 10 6 4 2 3 7 15 20 20 12 4 4 1 4 3 3 360 357 355 353 352 351 349 349 350 346 344 342 344 344 346 351 351 347
25 74 72 53 97 87 182 113 148 112 136 155 216 284 99 84 54 73 76 35 79 36 53 11 8 13 51 166 226 238 262 263 280 303 328 306 325 298 305 297 298 294 275 275 268 281 290 277 280 301 315 323 333 338 347 348 341 347 350 346 360 355 6 1 360 358 1 356 358 360 14 11 8 8 358 354 2 357 358 358 357 354 353 352 352 351 350 347 344 341 340 338 336 341 346 350 345
42 54 97 66 128 66 182 154 157 138 119 119 94 108 114 116 223 158 104 37 63 56 63 352 26 26 256 252 218 238 267 311 316 337 307 316 339 319 322 294 333 284 294 284 285 276 286 301 302 304 339 330 332 346 350 350 352 347 342 338 347 357 358 355 354 350 354 356 343 342 356 360 0 3 357 354 2 359 353 355 357 355 353 352 350 350 348 344 341 340 340 337 335 341 352 353 340
60 91 64 102 66 332 102 109 110 121 125 129 116 19 79 125 138 188 81 20 14 56 35 26 38 342 346 312 301 303 311 304 316 312 299 304 327 357 309 304 311 313 331 310 285 288 279 301 316 336 332 333 342 359 358 359 357 351 341 340 350 357 348 355 347 350 351 349 328 324 340 348 350 359 355 2 6 359 351 352 353 354 353 350 348 347 344 342 341 341 339 336 338 348 350 341 336
25 93 85 61 109 78 66 87 89 97 125 102 88 45 73 354 65 32 98 102 45 50 1 7 36 348 303 291 296 283 319 292 300 308 307 295 298 350 348 346 326 315 291 270 284 300 320 321 324 329 346 339 355 3 2 1 356 346 342 339 350 349 343 345 341 347 349 345 328 312 316 336 345 354 6 3 5 357 347 350 346 348 347 347 345 345 338 336 339 336 335 332 341 338 336 330 331
353 62 78 132 111 88 45 85 93 97 100 99 93 93 66 27 28 87 167 68 24 10 290 137 102 157 248 263 276 288 282 295 298 297 289 293 304 255 230 243 248 273 266 294 304 327 310 337 333 358 354 347 13 6 12 358 352 358 347 342 345 347 336 340 336 348 342 344 328 308 305 333 346 10 10 1 357 353 349 347 344 343 341 343 343 340 337 333 335 331 330 332 329 332 329 325 324
106 71 81 102 98 79 77 86 91 97 87 93 82 81 119 188 43 28 72 105 154 238 291 176 188 214 206 244 258 228 264 276 274 283 256 249 264 296 307 309 298 235 275 356 334 318 319 336 329 358 13 354 14 11 5 356 6 355 345 338 345 342 342 339 342 347 342 342 331 314 310 339 0 13 6 356 349 349 346 342 342 339 344 342 342 336 335 334 333 332 332 330 325 325 320 317 317
91 26 52 55 76 106 53 66 65 95 88 82 79 96 104 78 93 2 67 103 214 231 207 181 189 199 213 203 178 220 229 216 244 243 227 252 275 277 281 268 287 316 330 329 296 295 324 351 352 17 10 343 360 349 3 9 353 331 337 331 348 332 341 343 342 341 339 337 341 332 333 345 6 17 360 348 348 344 342 341 342 340 341 342 339 338 333 332 332 334 333 327 324 322 321 319 317
88 96 88 59 81 86 96 93 86 84 92 84 101 122 83 118 78 302 65 263 196 223 224 236 225 245 215 127 182 192 213 214 234 243 222 223 217 244 243 274 330 282 354 338 309 324 339 341 343 23 345 359 336 346 10 356 324 344 335 339 338 326 344 338 333 331 333 340 334 341 339 28 37 11 357 354 340 344 346 335 344 343 335 331 335 337 332 331 333 331 329 326 325 325 322 320 316
88 90 96 107 77 95 94 93 85 86 90 120 90 76 78 89 117 87 6 297 297 277 274 287 354 160 171 171 251 242 257 284 291 292 322 309 277 272 327 328 291 329 10 327 322 346 324 322 346 8 345 332 328 352 360 315 312 339 337 337 331 328 340 330 328 334 341 334 333 350 343 25 17 10 358 341 335 350 337 336 351 337 327 326 336 332 333 332 332 330 326 322 323 322 321 320 315
52 113 106 99 100 98 98 83 91 99 98 98 83 87 89 125 109 55 273 301 280 289 311 305 143 142 227 231 230 213 224 276 327 345 343 337 5 23 352 339 345 14 311 288 317 307 303 309 13 343 315 295 317 8 326 317 308 325 323 323 317 331 331 324 336 349 331 342 339 352 338 31 27 357 347 341 353 343 337 338 345 330 330 331 338 334 331 329 325 326 323 324 324 323 322 315 319
136 111 109 111 123 106 76 106 100 99 96 132 104 105 78 309 135 343 301 268 338 348 308 319 170 216 245 249 277 340 26 18 12 313 22 13 7 22 346 356 9 319 314 339 317 295 294 331 347 319 298 301 337 349 310 299 301 306 313 317 331 337 324 332 346 349 339 340 341 344 335 356 1 0 356 347 344 340 338 337 332 332 335 334 337 332 326 326 325 324 325 325 325 322 317 318 323
112 113 89 72 71 68 96 98 122 115 63 118 105 98 77 360 63 184 259 288 358 4 313 311 282 253 280 332 24 64 74 21 36 53 39 16 344 320 344 343 311 313 339 303 272 277 300 333 286 297 274 286 319 314 308 307 301 298 315 329 346 333 336 343 345 351 340 339 347 337 338 352 1 355 358 348 345 339 331 335 331 339 333 334 337 329 328 330 332 325 324 320 318 315 316 322 318
131 118 96 107 90 64 10 135 201 128 155 192 126 65 29 355 68 274 259 298 2 340 295 285 279 321 38 73 72 78 106 93 60 63 356 236 237 225 341 259 254 311 278 240 269 301 311 288 290 287 277 302 310 298 297 290 294 311 326 339 345 349 345 347 346 343 334 346 343 334 347 351 4 354 347 343 336 330 335 335 336 334 334 334 333 331 336 334 331 328 324 321 319 319 320 314 309
101 47 111 87 24 50 351 352 24 75 208 174 172 44 295 284 262 276 278 338 347 3 301 319 332 81 113 104 98 61 268 60 45 103 253 272 259 233 278 291 262 262 285 298 322 314 295 288 271 293 297 315 309 306 303 318 317 318 343 349 4 357 347 347 335 334 337 345 339 348 356 348 355 348 345 338 335 340 333 336 337 336 334 330 331 339 341 336 331 331 327 328 324 323 315 310 310
105 185 57 62 65 43 325 33 306 109 53 127 112 128 282 273 281 271 283 33 337 278 287 23 74 96 118 101 147 148 337 287 185 240 262 272 272 246 239 274 294 292 308 317 307 283 290 287 311 309 324 331 330 327 332 325 319 345 349 4 360 355 347 345 335 330 340 333 348 355 358 347 350 346 341 345 342 345 345 343 341 330 325 330 340 338 336 331 331 330 327 326 321 319 313 311 312
36 37 347 348 82 259 297 294 36 163 14 30 79 75 222 250 264 268 270 59 20 238 314 113 124 146 178 191 160 162 194 278 293 273 264 272 264 266 244 264 275 292 280 271 277 293 298 305 330 330 336 342 339 332 328 321 312 344 353 8 2 351 357 349 334 328 327 339 359 356 352 350 350 346 351 356 351 348 348 343 330 325 329 334 338 330 333 331 331 325 323 322 324 321 320 318 317
20 91 115 46 52 151 360 27 18 304 160 13 69 179 266 305 257 277 285 23 8 148 278 262 163 152 180 192 198 215 273 302 314 289 280 265 273 255 252 256 269 263 262 276 265 306 306 330 344 349 344 347 341 340 338 342 358 7 6 1 352 356 4 343 331 328 341 356 356 360 349 348 349 356 355 355 355 344 347 338 326 328 330 337 330 325 329 322 329 326 324 327 322 318 321 319 321
358 29 104 194 130 230 81 305 8 27 94 6 1 102 218 233 279 275 299 9 45 142 226 252 259 200 195 216 224 224 248 275 292 285 275 265 263 279 269 263 270 282 283 257 264 280 300 309 317 333 357 358 348 337 333 327 331 1 3 353 355 4 354 341 331 340 349 350 354 354 347 350 356 359 353 357 356 341 342 335 330 331 333 330 327 328 322 322 322 329 328 324 325 323 323 324 322
146 68 83 51 26 95 170 99 314 45 11 96 38 73 212 256 277 283 261 15 135 228 204 213 213 200 216 211 205 235 252 273 270 268 264 269 275 275 288 285 284 292 290 307 340 340 29 342 348 356 11 356 342 340 339 345 353 358 348 360 353 360 351 336 337 347 347 350 356 350 356 356 358 356 357 356 351 343 341 339 335 326 327 328 330 328 332 335 336 333 330 321 321 319 322 322 329
357 170 150 119 108 12 62 277 282 114 74 58 96 152 217 259 264 274 291 278 197 253 282 276 256 253 264 238 233 241 249 262 256 260 265 268 255 270 288 294 292 303 305 338 341 14 6 354 4 360 4 339 331 353 345 345 3 354 347 345 356 353 338 337 341 348 344 355 353 358 360 1 358 355 359 349 347 346 344 334 329 325 330 334 335 342 340 344 338 337 331 327 324 327 335 327 336
78 89 89 107 108 339 301 303 272 113 69 15 148 153 203 235 234 244 246 305 299 304 277 273 270 254 248 250 237 247 258 236 253 276 275 266 283 288 288 311 329 327 327 5 353 352 355 350 7 1 326 339 356 355 345 353 354 336 338 359 336 328 332 339 341 343 351 353 358 3 2 4 358 354 355 350 353 349 343 331 333 337 338 340 341 345 329 330 335 333 323 327 328 333 334 336 331
112 102 95 56 68 89 251 289 335 331 128 318 29 122 247 237 251 251 268 323 266 252 256 262 247 252 254 239 249 249 243 298 317 313 301 323 324 326 342 346 356 10 328 337 332 321 314 351 23 328 329 342 343 351 332 336 356 341 300 319 324 321 340 346 339 347 350 358 360 4 1 359 356 352 354 355 351 348 345 343 345 345 348 343 347 338 337 335 336 337 336 332 339 332 327 334 332
29 109 143 83 23 252 286 301 334 335 81 271 281 194 257 260 254 266 237 216 238 221 201 209 199 238 241 247 253 270 298 279 304 282 280 278 309 318 345 333 320 335 309 322 308 327 348 357 336 329 323 340 340 344 9 4 324 351 16 332 346 323 311 340 338 338 355 356 356 1 354 356 354 354 358 354 353 347 346 348 351 346 351 348 345 342 342 344 343 344 349 339 332 339 322 329 343
56 32 56 117 259 62 311 294 347 346 74 238 198 107 296 302 288 272 259 221 255 248 219 236 198 219 238 238 227 249 267 278 277 273 274 300 302 290 334 329 308 326 353 350 340 335 322 334 331 331 333 346 357 350 7 1 354 4 3 350 334 347 320 332 340 342 352 347 353 356 356 358 359 360 358 355 350 347 346 352 350 351 348 352 344 337 343 345 350 351 347 343 342 332 343 333 350
11 79 91 85 41 43 158 283 319 307 27 83 73 40 326 302 295 307 291 294 296 303 321 285 275 244 258 294 297 239 246 258 264 283 286 291 319 317 295 285 288 357 329 322 305 312 313 305 309 324 350 358 360 6 6 4 13 9 357 345 345 341 340 349 349 350 355 352 353 357 355 359 1 360 354 351 347 345 347 354 353 349 352 353 343 339 344 349 349 347 340 342 346 332 329 333 336
347 350 126 149 154 343 336 331 28 18 335 317 115 25 296 280 265 256 273 330 288 314 344 283 267 291 308 295 275 286 273 244 239 250 256 273 273 296 312 299 316 337 314 304 276 277 290 311 331 3 12 10 15 16 10 28 28 17 1 358 354 353 348 353 357 347 346 349 349 338 343 352 357 352 347 345 342 344 350 352 351 354 353 351 340 340 348 349 345 345 341 338 332 333 326 330 326
86 320 138 134 144 72 34 359 56 348 85 354 61 134 268 328 286 262 281 330 285 308 291 271 289 284 288 268 271 268 271 291 290 269 267 278 287 304 299 298 295 308 297 301 307 337 338 337 12 33 23 27 22 29 23 25 20 14 6 4 350 351 342 339 340 337 341 337 343 343 341 343 349 347 343 343 341 346 351 351 350 356 349 345 334 351 355 346 340 338 337 335 331 330 337 328 331
55 236 120 94 59 54 27 87 115 234 270 273 54 106 173 304 287 252 280 299 292 317 326 327 315 285 260 263 264 258 259 250 253 266 271 264 262 246 263 281 286 266 284 315 346 357 8 10 41 34 31 36 31 24 31 21 17 7 8 5 357 356 346 333 338 339 344 337 342 343 341 340 343 344 342 342 346 350 350 349 351 349 346 339 338 358 346 336 334 330 331 329 324 331 332 327 329
191 219 193 82 107 147 96 77 41 191 33 292 331 355 11 269 263 312 343 275 299 295 277 282 299 304 286 273 268 256 243 237 227 244 252 256 249 262 264 289 282 290 308 337 334 340 16 34 47 41 38 33 23 27 25 16 17 16 15 3 355 351 343 339 338 343 342 340 341 340 341 340 340 341 344 345 351 350 352 343 348 343 344 338 344 348 338 334 332 332 333 335 336 334 333 333 324
244 179 90 80 94 75 86 64 46 337 59 295 296 22 159 284 276 328 331 251 270 255 248 240 243 256 269 266 274 271 275 269 253 234 260 273 255 254 268 281 292 281 318 315 327 20 31 42 46 45 32 30 22 23 20 19 21 19 15 6 360 347 348 342 352 347 344 343 340 338 338 342 341 340 344 352 350 351 345 343 347 343 343 340 347 339 333 332 333 332 332 329 328 328 325 325 326
137 83 72 2 32 37 23 62 78 51 14 258 234 353 129 286 262 213 168 219 195 232 291 275 285 290 271 258 252 265 270 283 289 306 273 258 263 272 305 298 279 320 345 355 16 27 42 56 54 57 29 28 24 19 23 26 21 22 16 4 1 354 351 352 352 349 345 345 343 338 340 338 337 339 341 345 348 347 342 348 346 344 340 344 339 338 336 334 331 331 329 328 328 328 327 322 324
111 70 104 82 345 6 35 347 33 86 279 259 270 142 107 258 297 284 236 272 204 164 205 235 257 258 258 273 278 268 266 270 299 314 307 312 327 318 335 318 322 314 346 5 9 27 54 52 59 60 30 23 16 18 29 27 23 16 14 11 5 359 356 357 353 344 343 341 339 337 336 336 339 340 342 343 345 346 344 344 341 340 338 339 339 335 332 332 330 329 329 329 328 324 320 324 320
69 63 36 108 275 33 306 12 349 217 209 191 25 5 19 242 219 232 270 233 246 218 195 206 221 247 260 272 271 277 288 301 300 291 295 301 286 283 309 303 323 340 340 323 8 49 58 56 60 63 30 11 17 22 33 24 21 13 11 11 3 357 357 358 346 341 340 340 336 336 339 339 338 340 344 341 340 343 343 339 340 337 339 336 333 335 331 331 332 329 328 328 325 325 326 322 322
56 89 124 73 42 36 274 272 231 309 296 264 20 307 235 249 292 221 224 234 214 213 220 216 201 220 241 264 287 300 300 289 274 274 279 275 273 275 271 271 277 278 299 352 27 69 64 66 58 67 28 13 20 32 27 24 17 9 11 9 357 353 350 353 342 340 340 337 336 334 336 337 336 337 335 337 333 334 339 335 328 329 332 330 332 331 331 332 331 331 329 327 328 323 319 322 319
225 218 133 159 141 156 237 238 286 235 238 280 283 44 238 4 244 255 225 266 301 278 275 264 260 254 265 272 277 285 288 289 268 267 262 264 276 272 275 279 278 267 246 193 92 81 81 67 63 54 27 17 30 32 26 21 12 4 8 2 353 353 345 348 341 341 340 338 337 335 333 335 334 332 332 327 330 334 333 333 331 335 332 333 333 331 333 334 332 331 330 329 328 324 327 328 323
265 177 101 57 225 150 141 206 162 280 335 336 232 209 179 186 254 284 243 316 314 335 312 333 298 293 331 329 307 287 284 278 284 282 283 278 262 279 285 275 266 251 233 180 89 103 90 90 85 71 55 35 36 30 26 22 7 357 2 357 354 349 346 343 341 343 341 340 333 331 329 330 328 327 325 326 330 334 332 329 333 332 332 331 332 333 334 335 335 333 335 334 329 337 329 326 322
220 56 90 171 148 97 92 67 64 81 52 254 205 314 300 300 338 311 355 352 297 332 305 301 278 286 330 297 277 272 264 271 277 267 261 278 304 292 252 258 263 257 240 134 122 121 114 97 73 51 43 49 38 32 30 20 360 360 354 355 350 347 347 346 342 338 337 335 331 328 328 323 322 326 325 329 332 333 328 330 334 331 332 332 332 336 336 338 337 336 333 332 335 332 327 323 316
22 56 218 110 112 122 126 175 335 61 120 263 32 260 308 27 299 320 328 317 283 296 292 290 299 304 299 266 267 269 269 262 269 272 266 261 260 264 279 266 245 223 173 124 122 117 110 105 89 75 59 47 26 32 28 13 0 356 353 351 344 344 344 341 340 338 335 332 331 331 328 330 332 327 328 330 332 331 331 336 331 332 330 334 339 337 340 338 337 336 332 334 328 322 318 311 306
139 16 206 76 266 308 329 89 10 345 327 291 311 297 253 189 255 333 273 230 266 267 283 318 290 289 265 276 284 284 283 293 286 281 291 295 282 279 264 263 275 180 120 132 126 113 94 80 84 90 87 81 63 45 26 9 5 359 356 346 339 341 347 345 338 336 335 334 335 333 332 328 325 332 335 335 335 334 336 335 335 331 335 338 340 339 338 336 338 333 338 333 320 316 306 304 297
231 18 171 321 116 158 85 197 171 121 258 32 295 31 261 211 222 193 233 217 234 264 308 270 259 260 268 265 268 275 286 286 284 285 280 268 268 258 258 255 228 147 139 141 129 104 80 71 66 67 74 61 47 36 19 8 357 4 351 346 346 346 346 343 340 337 336 337 332 331 332 331 335 334 335 335 334 336 335 336 335 333 337 338 338 338 335 336 333 332 327 321 311 304 304 298 295
330 25 335 344 30 217 112 14 96 171 173 177 228 329 282 265 212 170 206 211 218 203 236 258 266 270 263 255 260 269 268 272 273 270 275 274 269 272 266 263 145 109 120 122 116 109 117 69 64 60 61 36 38 23 18 3 359 0 357 357 349 347 343 340 339 337 337 334 333 333 332 332 333 336 337 336 337 335 336 336 333 337 337 336 335 334 334 333 332 325 315 301 297 296 292 291 292
161 155 245 170 93 18 314 275 8 56 86 217 125 262 272 273 181 196 183 220 209 226 210 250 268 272 270 272 266 248 264 267 259 269 267 270 270 268 277 74 115 119 123 120 126 111 75 63 69 64 58 41 28 15 13 359 360 356 360 354 349 340 337 337 338 339 340 338 334 336 333 339 338 334 337 335 335 335 336 335 336 334 334 331 330 327 328 328 325 319 305 298 294 294 294 289 289